Regional Weather Roundup
Issued by NWS

Home | Current Version | Previous Version | Text Only | Print | Product List | Glossary Off
Versions: 1 2 3 4 5 6 7 8 9 10 11 12 13 14 15 16 17 18 19 20 21 22 23 24 25 26 27

000
ASUS45 KCYS 051710
RWRWY

WYOMING REGIONAL WEATHER ROUNDUP
NATIONAL WEATHER SERVICE CHEYENNE WY
1100 AM MDT THU MAY 05 2016

NOTE:  "FAIR" INDICATES FEW OR NO CLOUDS BELOW 12,000 FEET
WITH NO SIGNIFICANT WEATHER AND/OR OBSTRUCTIONS TO VISIBILITY.

WYZ001-051800-
YELLOWSTONE NATIONAL PARK

CITY           SKY/WX    TMP DP  RH WIND       PRES   REMARKS
LK YELLOWSTONE   N/A     45  26  47 CALM      30.21R
W YELLOWSTONE  NOT AVBL

$$
WYZ002>013-054>058-071-098>099-051800-
NORTHERN WYOMING

CITY           SKY/WX    TMP DP  RH WIND       PRES   REMARKS
JACKSON        SUNNY     59  30  33 S5        30.13F
CODY           FAIR      72  34  25 SW9       30.02S
GREYBULL       FAIR      70  34  26 S5        29.97S
WORLAND        FAIR      64  41  42 CALM      30.00S
SHERIDAN       FAIR      73  45  36 S3        29.95S
BUFFALO        FAIR      72  42  34 SE7       30.01R
GILLETTE       FAIR      73  44  35 S15       29.97S
HULETT         FAIR      77  43  29 W8        29.98F
NEWCASTLE      FAIR      72  36  26 S3        30.02S

$$
WYZ014>020-022>026-101>103-051800-
CENTRAL WYOMING

CITY           SKY/WX    TMP DP  RH WIND       PRES   REMARKS
BIG PINEY      FAIR      59  33  37 VRB5      30.18S
PINEDALE       PTSUNNY   63  30  29 S7        30.18F
DUBOIS         FAIR      59  27  29 NE5       30.15F
LANDER         FAIR      67  37  33 E5        30.07F
RIVERTON       FAIR      67  40  37 VRB3      30.08F
CASPER         FAIR      69  36  29 SW14      30.07R
DOUGLAS        FAIR      71  42  35 CALM      30.05S

$$
WYZ021-027>030-104>119-051800-
SOUTHERN WYOMING

CITY           SKY/WX    TMP DP  RH WIND       PRES   REMARKS
EVANSTON       FAIR      67  29  24 VRB6      30.13S
KEMMERER         N/A     64  28  25 E8        30.17S
FORT BRIDGER   SUNNY     64  34  32 E6        30.17F
ROCK SPRINGS   PTSUNNY   68  30  24 SE7       30.15F
DIXON          FAIR      67  33  27 CALM      30.20F
RAWLINS        FAIR      66  34  30 VRB3      30.18F
SARATOGA       FAIR      68  30  24 SW13G18   30.20F
LARAMIE        FAIR      62  33  33 SW13      30.21F
CHEYENNE       FAIR      70  27  20 W8        30.15F
TORRINGTON     FAIR      71  41  33 CALM      30.03F
PINE BLUFFS    FAIR      70  45  40 S9        30.11S

$$




USA.gov is the U.S. government's official web portal to all federal, state and local government web resources and services.